Regional Weather Roundup
Issued by NWS

Home | Current Version | Previous Version | Text Only | Print | Product List | Glossary On
Versions: 1 2 3 4 5 6 7 8 9 10 11 12 13 14 15 16 17 18 19 20 21 22 23 24 25 26 27 28 29 30 31 32 33 34 35 36 37 38 39 40 41 42 43 44 45 46 47 48 49 50
000
ASUS43 KLSX 042107
RWRMO

WEATHER SUMMARY FOR MISSOURI
NATIONAL WEATHER SERVICE SPRINGFIELD MO
400 PM CDT FRI SEP 04 2015

NOTE: "FAIR" INDICATES FEW OR NO CLOUDS BELOW 12,000 FEET WITH NO
       SIGNIFICANT WEATHER AND/OR OBSTRUCTIONS TO VISIBILITY.
       CURRENT SKY AND/OR WEATHER CONDITIONS ARE NOT AVAILABLE FOR
       CHILLICOTHE AND FARMINGTON.

MOZ001>031-035>038-043-044-053-054-042200-
...NORTHERN AND WESTERN MISSOURI...

CITY           SKY/WX    TMP DP  RH WIND       PRES   REMARKS
KANSAS CTY INT FAIR      92  67  43 S16       29.95F HX  95
KANSAS C DTWN  FAIR      93  67  42 S15G24    29.94S HX  96
LEE`S SUMMIT   FAIR      91  66  43 S9G21     29.96F HX  93
ST JOSEPH      FAIR      90  69  50 S14G21    29.92F HX  94
CHILLICOTHE      N/A     94  70  45 S8        29.95F HX 100
KIRKSVILLE     FAIR      90  66  45 S7        29.98F HX  92

$$
MOZ066>068-077>081-088>096-101>105-042200-
...SOUTHWEST MISSOURI...

CITY           SKY/WX    TMP DP  RH WIND       PRES   REMARKS
SPRINGFIELD    FAIR      88  67  49 S10       30.01F HX  91
JOPLIN         SUNNY     90  72  55 MISG        N/A  HX  96

$$
MOZ032>034-039>042-045>050-055>058-069>072-042200-
...CENTRAL MISSOURI...

CITY           SKY/WX    TMP DP  RH WIND       PRES   REMARKS
COLUMBIA       FAIR      90  67  46 S8        29.99F HX  93
JEFFERSON CITY FAIR      93  64  38 S8        29.96F HX  94
ROLLA          FAIR      91  67  44 S10       30.00F HX  94
SEDALIA        FAIR      93  67  42 S8        29.99F HX  96
WHITEMAN AFB   FAIR      93  66  40 SW13G26   29.95F HX  96
WARRENSBURG    FAIR      91  64  40 S9        29.96F HX  93
OSAGE BEACH    PTSUNNY   90  66  45 SW9       30.00S HX  92

$$
MOZ051-052-059>065-042200-
...EAST CENTRAL MISSOURI...

CITY           SKY/WX    TMP DP  RH WIND       PRES   REMARKS
ST LOUIS INTL  FAIR      94  67  41 S5        29.99F HX  97
SPIRIT OF STL  FAIR      91  69  48 VRB3      29.97F HX  96
ST CHARLES     FAIR      94  69  44 W9        29.97F HX  99

$$
MOZ072>076-082>087-097>100-106>115-042200-
...SOUTH CENTRAL AND SOUTHEAST MISSOURI...

CITY           SKY/WX    TMP DP  RH WIND       PRES   REMARKS
CAPE GIRARDEAU FAIR      89  70  53 NE5       29.99F HX  94
FARMINGTON     FAIR      90  66  45 SE6       30.05S HX  92
POPLAR BLUFF   FAIR      91  70  49 VRB3      29.98F HX  96
WEST PLAINS    FAIR      87  66  49 SE3       30.04F

$$


USA.gov is the U.S. government's official web portal to all federal, state and local government web resources and services.